Time,TemperatureF,DewpointF,PressureIn,WindDirection,WindDirectionDegrees,WindSpeedMPH,WindSpeedGustMPH,Humidity,HourlyPrecipIn,Conditions,Clouds,dailyrainin,SoftwareType,DateUTC
2013-08-14 00:00:00,55.9,47.7,30.02,WNW,294,5.0,5.0,74,0.00,,,0.00,Wunderground v.1.15,2013-08-14 04:00:00,
2013-08-14 00:01:00,55.9,47.7,30.02,WNW,294,5.0,5.0,74,0.00,,,0.00,Wunderground v.1.15,2013-08-14 04:01:00,
2013-08-14 00:02:00,55.8,47.6,30.02,WNW,295,5.0,6.0,74,0.00,,,0.00,Wunderground v.1.15,2013-08-14 04:02:00,
2013-08-14 00:03:00,55.8,47.6,30.02,NW,304,5.0,6.0,74,0.00,,,0.00,Wunderground v.1.15,2013-08-14 04:03:00,
2013-08-14 00:04:00,55.8,47.6,30.02,WNW,302,5.0,6.0,74,0.00,,,0.00,Wunderground v.1.15,2013-08-14 04:04:00,
2013-08-14 00:09:00,55.5,47.3,30.02,NW,311,4.0,6.0,74,0.00,,,0.00,Wunderground v.1.15,2013-08-14 04:09:00,
2013-08-14 00:15:00,55.3,47.2,30.02,NW,319,4.0,7.0,74,0.00,,,0.00,Wunderground v.1.15,2013-08-14 04:15:00,
2013-08-14 00:17:00,55.3,47.2,30.02,NW,315,4.0,7.0,74,0.00,,,0.00,Wunderground v.1.15,2013-08-14 04:17:00,
2013-08-14 00:22:00,55.0,47.2,30.03,NW,314,3.0,4.0,75,0.00,,,0.00,Wunderground v.1.15,2013-08-14 04:22:00,
2013-08-14 00:28:00,54.9,47.1,30.02,NW,313,3.0,6.0,75,0.00,,,0.00,Wunderground v.1.15,2013-08-14 04:28:00,
2013-08-14 00:33:00,54.8,47.0,30.03,NW,313,4.0,4.0,75,0.00,,,0.00,Wunderground v.1.15,2013-08-14 04:33:00,
2013-08-14 00:38:00,54.7,47.3,30.03,NW,309,3.0,5.0,76,0.00,,,0.00,Wunderground v.1.15,2013-08-14 04:38:00,
2013-08-14 00:44:00,54.5,47.1,30.03,NW,309,3.0,4.0,76,0.00,,,0.00,Wunderground v.1.15,2013-08-14 04:44:00,
2013-08-14 00:49:00,54.5,47.4,30.03,WNW,298,3.0,6.0,77,0.00,,,0.00,Wunderground v.1.15,2013-08-14 04:49:00,
2013-08-14 00:54:00,54.4,47.3,30.03,WNW,302,4.0,6.0,77,0.00,,,0.00,Wunderground v.1.15,2013-08-14 04:54:00,
2013-08-14 01:00:00,54.3,47.2,30.03,NW,319,4.0,4.0,77,0.00,,,0.00,Wunderground v.1.15,2013-08-14 05:00:00,
2013-08-14 01:05:00,54.2,47.1,30.03,NW,312,4.0,5.0,77,0.00,,,0.00,Wunderground v.1.15,2013-08-14 05:05:00,
2013-08-14 01:10:00,54.1,47.0,30.03,NW,309,4.0,6.0,77,0.00,,,0.00,Wunderground v.1.15,2013-08-14 05:10:00,
2013-08-14 01:16:00,54.0,47.0,30.03,NW,311,4.0,7.0,77,0.00,,,0.00,Wunderground v.1.15,2013-08-14 05:16:00,
2013-08-14 01:21:00,53.9,46.9,30.03,WNW,298,4.0,6.0,77,0.00,,,0.00,Wunderground v.1.15,2013-08-14 05:21:00,
2013-08-14 01:27:00,53.9,46.9,30.03,WNW,298,4.0,6.0,77,0.00,,,0.00,Wunderground v.1.15,2013-08-14 05:27:00,
2013-08-14 01:32:00,53.9,46.9,30.03,WNW,298,5.0,5.0,77,0.00,,,0.00,Wunderground v.1.15,2013-08-14 05:32:00,
2013-08-14 01:37:00,53.8,46.8,30.03,NW,306,5.0,8.0,77,0.00,,,0.00,Wunderground v.1.15,2013-08-14 05:37:00,
2013-08-14 01:43:00,53.6,46.6,30.04,NW,324,5.0,6.0,77,0.00,,,0.00,Wunderground v.1.15,2013-08-14 05:43:00,
2013-08-14 01:48:00,53.5,46.8,30.04,NW,311,5.0,6.0,78,0.00,,,0.00,Wunderground v.1.15,2013-08-14 05:48:00,
2013-08-14 01:53:00,53.5,46.8,30.04,NW,323,4.0,6.0,78,0.00,,,0.00,Wunderground v.1.15,2013-08-14 05:53:00,
2013-08-14 01:59:00,53.3,46.6,30.04,NW,321,4.0,6.0,78,0.00,,,0.00,Wunderground v.1.15,2013-08-14 05:59:00,
2013-08-14 02:04:00,53.2,46.9,30.04,NW,318,4.0,6.0,79,0.00,,,0.00,Wunderground v.1.15,2013-08-14 06:04:00,
2013-08-14 02:09:00,53.2,46.9,30.04,NW,318,4.0,6.0,79,0.00,,,0.00,Wunderground v.1.15,2013-08-14 06:09:00,
2013-08-14 02:15:00,53.1,46.8,30.04,NNW,338,4.0,6.0,79,0.00,,,0.00,Wunderground v.1.15,2013-08-14 06:15:00,
2013-08-14 02:20:00,53.0,46.7,30.04,NNW,327,3.0,3.0,79,0.00,,,0.00,Wunderground v.1.15,2013-08-14 06:20:00,
2013-08-14 02:25:00,53.0,47.0,30.04,NW,316,4.0,4.0,80,0.00,,,0.00,Wunderground v.1.15,2013-08-14 06:25:00,
2013-08-14 02:31:00,52.9,46.9,30.04,NW,321,4.0,7.0,80,0.00,,,0.00,Wunderground v.1.15,2013-08-14 06:31:00,
2013-08-14 02:36:00,52.8,46.8,30.04,NNW,335,4.0,7.0,80,0.00,,,0.00,Wunderground v.1.15,2013-08-14 06:36:00,
2013-08-14 02:42:00,52.7,46.7,30.04,NNW,332,4.0,4.0,80,0.00,,,0.00,Wunderground v.1.15,2013-08-14 06:42:00,
2013-08-14 02:47:00,52.6,46.9,30.04,NW,326,3.0,5.0,81,0.00,,,0.00,Wunderground v.1.15,2013-08-14 06:47:00,
2013-08-14 02:52:00,52.6,46.9,30.04,NW,326,4.0,5.0,81,0.00,,,0.00,Wunderground v.1.15,2013-08-14 06:52:00,
2013-08-14 02:58:00,52.4,46.7,30.04,NW,311,4.0,5.0,81,0.00,,,0.00,Wunderground v.1.15,2013-08-14 06:58:00,
2013-08-14 03:03:00,52.4,47.1,30.04,NW,311,4.0,5.0,82,0.00,,,0.00,Wunderground v.1.15,2013-08-14 07:03:00,
2013-08-14 03:09:00,52.3,47.0,30.04,NW,318,4.0,5.0,82,0.00,,,0.00,Wunderground v.1.15,2013-08-14 07:09:00,
2013-08-14 03:15:00,52.3,47.0,30.05,NW,315,4.0,6.0,82,0.00,,,0.00,Wunderground v.1.15,2013-08-14 07:15:00,
2013-08-14 03:20:00,52.3,47.0,30.05,WNW,302,5.0,8.0,82,0.00,,,0.00,Wunderground v.1.15,2013-08-14 07:20:00,
2013-08-14 03:25:00,52.2,46.9,30.06,NNW,346,5.0,6.0,82,0.00,,,0.00,Wunderground v.1.15,2013-08-14 07:25:00,
2013-08-14 03:31:00,52.2,46.9,30.05,NNW,343,4.0,4.0,82,0.00,,,0.00,Wunderground v.1.15,2013-08-14 07:31:00,
2013-08-14 03:36:00,52.1,46.8,30.05,NNW,340,3.0,4.0,82,0.00,,,0.00,Wunderground v.1.15,2013-08-14 07:36:00,
2013-08-14 03:41:00,52.0,46.7,30.05,NNW,338,3.0,4.0,82,0.00,,,0.00,Wunderground v.1.15,2013-08-14 07:41:00,
2013-08-14 03:47:00,51.9,46.6,30.06,NW,323,3.0,7.0,82,0.00,,,0.00,Wunderground v.1.15,2013-08-14 07:47:00,
2013-08-14 03:52:00,51.9,46.6,30.05,NW,322,3.0,5.0,82,0.00,,,0.00,Wunderground v.1.15,2013-08-14 07:52:00,
2013-08-14 03:57:00,51.8,46.5,30.05,NW,322,3.0,5.0,82,0.00,,,0.00,Wunderground v.1.15,2013-08-14 07:57:00,
2013-08-14 04:03:00,51.7,46.7,30.05,NW,322,4.0,4.0,83,0.00,,,0.00,Wunderground v.1.15,2013-08-14 08:03:00,
2013-08-14 04:08:00,51.7,46.7,30.05,NW,322,4.0,4.0,83,0.00,,,0.00,Wunderground v.1.15,2013-08-14 08:08:00,
2013-08-14 04:14:00,51.7,46.7,30.05,NW,321,4.0,4.0,83,0.00,,,0.00,Wunderground v.1.15,2013-08-14 08:14:00,
2013-08-14 04:19:00,51.6,46.6,30.05,NW,321,3.0,4.0,83,0.00,,,0.00,Wunderground v.1.15,2013-08-14 08:19:00,
2013-08-14 04:24:00,51.5,46.5,30.05,NW,321,3.0,6.0,83,0.00,,,0.00,Wunderground v.1.15,2013-08-14 08:24:00,
2013-08-14 04:30:00,51.5,46.8,30.05,NW,312,4.0,4.0,84,0.00,,,0.00,Wunderground v.1.15,2013-08-14 08:30:00,
2013-08-14 04:35:00,51.5,46.8,30.05,NW,312,4.0,5.0,84,0.00,,,0.00,Wunderground v.1.15,2013-08-14 08:35:00,
2013-08-14 04:40:00,51.4,46.7,30.05,NW,313,4.0,5.0,84,0.00,,,0.00,Wunderground v.1.15,2013-08-14 08:40:00,
2013-08-14 04:46:00,51.3,46.6,30.06,NW,307,4.0,7.0,84,0.00,,,0.00,Wunderground v.1.15,2013-08-14 08:46:00,
2013-08-14 04:51:00,51.2,46.8,30.05,NW,306,4.0,6.0,85,0.00,,,0.00,Wunderground v.1.15,2013-08-14 08:51:00,
2013-08-14 04:57:00,51.1,46.7,30.06,NW,304,4.0,6.0,85,0.00,,,0.00,Wunderground v.1.15,2013-08-14 08:57:00,
2013-08-14 05:02:00,51.0,46.6,30.06,NW,311,4.0,6.0,85,0.00,,,0.00,Wunderground v.1.15,2013-08-14 09:02:00,
2013-08-14 05:08:00,51.0,47.0,30.05,NW,309,4.0,6.0,86,0.00,,,0.00,Wunderground v.1.15,2013-08-14 09:08:00,
2013-08-14 05:13:00,50.9,46.9,30.06,NW,311,5.0,10.0,86,0.00,,,0.00,Wunderground v.1.15,2013-08-14 09:13:00,
2013-08-14 05:18:00,50.9,46.9,30.06,NNW,333,5.0,10.0,86,0.00,,,0.00,Wunderground v.1.15,2013-08-14 09:18:00,
2013-08-14 05:24:00,50.9,46.9,30.06,NW,314,5.0,7.0,86,0.00,,,0.00,Wunderground v.1.15,2013-08-14 09:24:00,
2013-08-14 05:29:00,50.9,46.9,30.06,NNW,329,4.0,7.0,86,0.00,,,0.00,Wunderground v.1.15,2013-08-14 09:29:00,
2013-08-14 05:35:00,50.9,47.2,30.06,NNW,343,4.0,9.0,87,0.00,,,0.00,Wunderground v.1.15,2013-08-14 09:35:00,
2013-08-14 05:40:00,50.8,47.1,30.06,NW,325,5.0,5.0,87,0.00,,,0.00,Wunderground v.1.15,2013-08-14 09:40:00,
2013-08-14 05:45:00,50.8,47.1,30.06,NW,323,5.0,6.0,87,0.00,,,0.00,Wunderground v.1.15,2013-08-14 09:45:00,
2013-08-14 05:51:00,50.8,47.1,30.06,WNW,303,5.0,6.0,87,0.00,,,0.00,Wunderground v.1.15,2013-08-14 09:51:00,
2013-08-14 05:57:00,50.7,47.0,30.06,NW,305,5.0,6.0,87,0.00,,,0.00,Wunderground v.1.15,2013-08-14 09:57:00,
2013-08-14 06:03:00,50.6,47.2,30.06,NW,304,4.0,4.0,88,0.00,,,0.00,Wunderground v.1.15,2013-08-14 10:03:00,
2013-08-14 06:08:00,50.6,47.2,30.06,NW,309,4.0,6.0,88,0.00,,,0.00,Wunderground v.1.15,2013-08-14 10:08:00,
2013-08-14 06:14:00,50.5,47.1,30.07,WNW,290,4.0,6.0,88,0.00,,,0.00,Wunderground v.1.15,2013-08-14 10:14:00,
2013-08-14 06:19:00,50.6,47.2,30.07,NNW,330,5.0,10.0,88,0.00,,,0.00,Wunderground v.1.15,2013-08-14 10:19:00,
2013-08-14 06:24:00,50.6,47.2,30.07,NNW,339,5.0,8.0,88,0.00,,,0.00,Wunderground v.1.15,2013-08-14 10:24:00,
2013-08-14 06:30:00,50.6,47.2,30.07,NW,318,6.0,8.0,88,0.00,,,0.00,Wunderground v.1.15,2013-08-14 10:30:00,
2013-08-14 06:35:00,50.6,47.5,30.08,NNW,345,5.0,6.0,89,0.00,,,0.00,Wunderground v.1.15,2013-08-14 10:35:00,
2013-08-14 06:41:00,50.5,47.4,30.08,WNW,295,5.0,7.0,89,0.00,,,0.00,Wunderground v.1.15,2013-08-14 10:41:00,
2013-08-14 06:47:00,50.5,47.4,30.08,NW,319,5.0,8.0,89,0.00,,,0.00,Wunderground v.1.15,2013-08-14 10:47:00,
2013-08-14 06:53:00,50.4,47.3,30.08,NNW,333,5.0,5.0,89,0.00,,,0.00,Wunderground v.1.15,2013-08-14 10:53:00,
2013-08-14 06:58:00,50.4,47.3,30.09,NW,323,5.0,5.0,89,0.00,,,0.00,Wunderground v.1.15,2013-08-14 10:58:00,
2013-08-14 07:03:00,50.4,47.3,30.09,NNW,327,5.0,7.0,89,0.00,,,0.00,Wunderground v.1.15,2013-08-14 11:03:00,
2013-08-14 07:09:00,50.4,47.3,30.09,NNW,331,4.0,7.0,89,0.00,,,0.00,Wunderground v.1.15,2013-08-14 11:09:00,
2013-08-14 07:15:00,50.4,47.6,30.09,NW,307,4.0,7.0,90,0.00,,,0.00,Wunderground v.1.15,2013-08-14 11:15:00,
2013-08-14 07:20:00,50.4,47.6,30.09,WNW,300,4.0,4.0,90,0.00,,,0.00,Wunderground v.1.15,2013-08-14 11:20:00,
2013-08-14 07:26:00,50.6,47.8,30.10,NW,317,3.0,6.0,90,0.00,,,0.00,Wunderground v.1.15,2013-08-14 11:26:00,
2013-08-14 07:32:00,50.8,48.0,30.10,NW,314,4.0,6.0,90,0.00,,,0.00,Wunderground v.1.15,2013-08-14 11:32:00,
2013-08-14 07:38:00,51.1,48.3,30.10,WNW,302,4.0,6.0,90,0.00,,,0.00,Wunderground v.1.15,2013-08-14 11:38:00,
2013-08-14 07:43:00,51.3,48.2,30.10,NNW,330,5.0,5.0,89,0.00,,,0.00,Wunderground v.1.15,2013-08-14 11:43:00,
2013-08-14 07:48:00,51.4,48.3,30.10,WNW,298,5.0,7.0,89,0.00,,,0.00,Wunderground v.1.15,2013-08-14 11:48:00,
2013-08-14 07:54:00,51.4,48.3,30.10,NW,323,4.0,6.0,89,0.00,,,0.00,Wunderground v.1.15,2013-08-14 11:54:00,
2013-08-14 08:00:00,51.3,48.2,30.11,WNW,300,6.0,8.0,89,0.00,,,0.00,Wunderground v.1.15,2013-08-14 12:00:00,
2013-08-14 08:05:00,51.3,48.2,30.11,NNW,332,5.0,8.0,89,0.00,,,0.00,Wunderground v.1.15,2013-08-14 12:05:00,
2013-08-14 08:11:00,51.5,48.4,30.11,WNW,299,4.0,4.0,89,0.00,,,0.00,Wunderground v.1.15,2013-08-14 12:11:00,
2013-08-14 08:16:00,51.9,48.8,30.11,NW,315,4.0,6.0,89,0.00,,,0.00,Wunderground v.1.15,2013-08-14 12:16:00,
2013-08-14 08:22:00,52.5,49.4,30.11,NW,308,5.0,6.0,89,0.00,,,0.00,Wunderground v.1.15,2013-08-14 12:22:00,
2013-08-14 08:27:00,53.1,49.6,30.11,NW,319,5.0,7.0,88,0.00,,,0.00,Wunderground v.1.15,2013-08-14 12:27:00,
2013-08-14 08:33:00,53.8,50.3,30.11,WNW,295,4.0,4.0,88,0.00,,,0.00,Wunderground v.1.15,2013-08-14 12:33:00,
2013-08-14 08:39:00,54.2,50.4,30.12,NNW,337,4.0,7.0,87,0.00,,,0.00,Wunderground v.1.15,2013-08-14 12:39:00,
2013-08-14 08:45:00,54.7,50.6,30.12,NNW,335,5.0,8.0,86,0.00,,,0.00,Wunderground v.1.15,2013-08-14 12:45:00,
2013-08-14 08:50:00,55.0,50.9,30.12,WNW,303,5.0,5.0,86,0.00,,,0.00,Wunderground v.1.15,2013-08-14 12:50:00,
2013-08-14 08:55:00,55.6,51.2,30.12,NW,323,4.0,5.0,85,0.00,,,0.00,Wunderground v.1.15,2013-08-14 12:55:00,
2013-08-14 09:01:00,56.0,51.2,30.12,WNW,297,4.0,7.0,84,0.00,,,0.00,Wunderground v.1.15,2013-08-14 13:01:00,
2013-08-14 09:07:00,56.5,51.7,30.12,NW,313,5.0,11.0,84,0.00,,,0.00,Wunderground v.1.15,2013-08-14 13:07:00,
2013-08-14 09:12:00,56.7,51.6,30.12,NNW,327,4.0,5.0,83,0.00,,,0.00,Wunderground v.1.15,2013-08-14 13:12:00,
2013-08-14 09:18:00,56.8,51.4,30.12,NNW,327,5.0,9.0,82,0.00,,,0.00,Wunderground v.1.15,2013-08-14 13:18:00,
2013-08-14 09:23:00,57.0,51.9,30.12,NNW,346,6.0,6.0,83,0.00,,,0.00,Wunderground v.1.15,2013-08-14 13:23:00,